Location: Brunete
(40.4053°N, 3.9985°W)
Time: 20:30:37
(UTC+00:00)

Daily predictions for brighter satellites

Satellite Brightness Start Highest point End
(mag) Time Altitude Azimuth Time Altitude Azimuth Time Altitude Azimuth
CSL-04 Rocket 3.7 20:14:51 10° SSE 20:20:10 89° WSW 20:25:35 10° NNW
Meteor 1-13 Rocket 4.3 20:16:46 10° S 20:22:31 90° WNW 20:28:11 10° N
DELTA 2 DEB (DPAF) 4.0 20:19:16 10° NNE 20:23:29 84° E 20:27:42 10° SSW
Cosmos 1707 Rocket 4.4 20:21:41 10° SSE 20:25:35 31° E 20:29:30 10° NNE
SL-14 R/B 3.8 20:23:52 10° SSE 20:27:23 38° E 20:30:55 10° NNE
SL-4 R/B 4.1 20:27:18 10° NNW 20:30:06 19° NNE 20:33:02 10° ENE
Cosmos 2333 Rocket 2.6 20:24:46 10° NNW 20:30:24 52° ENE 20:36:00 10° SE
Cosmos 1655 Rocket 4.3 20:26:13 10° SSE 20:32:19 50° E 20:38:27 10° NNE
BlueWalker 3 2.3 20:29:11 10° WSW 20:32:55 69° NW 20:36:40 10° NE
SL-24 R/B 4.0 20:29:17 10° SSE 20:33:45 87° WSW 20:37:43 10° NNW
Cosmos 968 Rocket 3.5 20:28:42 10° S 20:33:48 68° ESE 20:38:58 10° NNE
Cosmos 1833 4.2 20:31:40 10° SSW 20:37:16 75° ESE 20:42:53 10° NNE
CZ-4C R/B 3.7 20:33:37 10° NNE 20:37:36 47° E 20:41:29 10° S
Cosmos 1932 4.5 20:32:53 10° SSW 20:39:13 78° ESE 20:45:30 10° NE
ASTRO E2 4.3 20:40:39 10° SW 20:42:42 15° S 20:44:34 11° SSE
Resurs 01 Rocket 2.8 20:39:59 10° S 20:44:08 41° W 20:48:18 10° NNW
Cosmos 1733 Rocket 3.7 20:40:02 10° N 20:44:12 39° ENE 20:47:58 12° SE
Cosmos 1356 Rocket 3.4 20:40:15 10° S 20:44:23 65° E 20:48:34 10° NNE
Meteor 1-23 Rocket 4.3 20:39:25 10° S 20:45:06 84° E 20:50:53 10° N
Cosmos 2322 Rocket 2.4 20:45:23 10° NNW 20:51:05 77° WSW 20:56:45 10° SSE
Cosmos 2333 4.4 20:46:42 10° NNW 20:52:26 61° ENE 20:57:23 14° SE
USA 234 3.8 20:46:51 10° ENE 20:52:42 34° SE 20:58:31 10° S
MOS 1 4.3 20:48:10 10° SSE 20:53:47 84° ENE 20:59:27 10° NNW
Cosmos 2297 Rocket 4.0 20:53:48 11° ESE 20:55:04 11° E 20:56:50 10° ENE
Atlas Centaur 2 4.4 20:53:10 10° WSW 20:58:23 20° SSW 21:03:40 11° SSE
CZ-4 R/B 4.2 20:57:02 10° WSW 20:58:54 13° W 21:00:48 10° WNW
ARGOS Delta rocket 3.6 20:54:38 10° SSE 20:58:59 80° ENE 21:03:23 10° N
Cosmos 1758 3.2 20:55:11 10° N 20:59:08 79° E 21:02:42 12° S
MOS 1 Rocket 4.3 20:58:40 15° SE 21:02:39 38° ENE 21:07:25 10° N
Cosmos 1300 2.4 20:59:34 10° N 21:03:08 86° E 21:06:06 14° S
Delta 2 Rocket 4.2 21:05:05 10° SSW 21:07:20 19° SSE 21:07:20 19° SSE
Cosmos 2219 Rocket 2.4 21:01:54 10° NNW 21:07:31 58° ENE 21:11:43 18° SE
ERS-1 Rocket 3.2 21:03:31 15° SSE 21:07:31 57° ENE 21:12:26 10° N
Cosmos 1814 Rocket 4.1 21:03:10 10° NNW 21:08:31 71° ENE 21:12:36 17° SSE
Cosmos 2315 Rocket 4.1 21:03:47 10° N 21:10:12 86° E 21:16:22 11° S
Terra 2.1 21:07:31 18° SE 21:10:52 50° ENE 21:15:26 10° N
SPOT 5 2.7 21:09:54 13° S 21:13:45 75° WSW 21:18:15 10° NNW
Meteor 1-4 Rocket 1.9 21:16:04 16° S 21:18:19 89° ENE 21:21:19 10° N
Aureole 3 3.7 21:18:08 11° S 21:22:16 88° E 21:27:39 10° N
Landsat 4 4.2 21:24:23 27° ESE 21:25:40 39° ENE 21:28:53 10° N
Cosmos 2084 Rocket 4.3 21:25:43 25° SSE 21:26:58 29° ESE 21:30:40 10° ENE
Okean-O 4.0 21:24:43 10° SSW 21:28:43 34° W 21:32:45 10° NNW
CZ-4C R/B 1.9 21:28:14 15° S 21:31:33 47° ESE 21:36:27 10° NE
SJ 16-02 2.7 21:27:52 10° SW 21:31:53 39° WNW 21:35:58 10° N
SPOT 3 Rocket 3.6 21:30:22 24° SSE 21:33:28 63° ENE 21:38:36 10° N
COSMOS 2428 3.3 21:28:31 10° NNW 21:33:58 44° ENE 21:37:11 23° ESE
Cosmos 1953 2.6 21:31:01 10° N 21:34:43 47° E 21:36:01 32° SE
Cosmos 1455 2.5 21:32:58 10° N 21:36:21 42° E 21:37:15 34° ESE
Cosmos 2360 Rocket 3.2 21:31:15 10° NW 21:36:32 41° WSW 21:41:02 14° S
BREEZE-M DEB (TANK) 3.6 21:34:39 10° SW 21:39:50 - ENE 21:36:21 28° SSW
USA 245 3.7 21:34:55 24° S 21:37:21 74° W 21:42:18 10° NNW
Spot 2 Rocket 3.4 21:34:54 24° SSE 21:38:04 83° ENE 21:43:11 10° NNW
Okean O Rocket 4.2 21:36:09 10° SW 21:38:33 14° W 21:40:56 10° WNW
ATLAS 2AS CENTAUR R/B 3.2 21:34:22 10° NW 21:40:48 49° WSW 21:45:21 19° S
Cosmos 1703 Rocket 3.6 21:41:35 29° SSE 21:43:41 60° E 21:48:04 10° NNE
Cosmos 1242 Rocket 1.6 21:44:43 71° ESE 21:44:49 73° E 21:47:31 10° NNE
Okean 1-7 3.0 21:42:51 20° SSW 21:45:50 81° W 21:50:10 10° N
Cosmos 1315 Rocket 3.2 21:44:20 16° SSW 21:47:22 63° W 21:51:21 10° N
SL-23 DEB 4.3 21:48:12 38° SSE 21:48:39 39° SE 21:53:25 10° ENE
SeaSat 1 2.4 21:52:49 33° SE 21:55:03 74° ENE 21:59:59 10° NNW
Cosmos 2208 Rocket 4.2 21:51:19 10° N 21:56:25 56° ENE 21:58:30 33° SE
COSMOS 2455 2.8 21:51:12 10° SSW 21:57:13 82° ESE 22:03:16 10° NNE
Landsat 5 3.4 21:56:30 10° NNE 22:00:40 73° ESE 22:02:11 39° S
Cosmos 1408 3.6 22:02:06 25° ENE 22:02:06 25° ENE 22:03:55 10° NNE
Ariane Rocket 3.3 22:00:37 26° S 22:03:24 62° WSW 22:08:28 10° NNW
Cosmos 158 Rocket 4.1 22:00:01 10° NNW 22:05:14 64° ENE 22:07:05 38° SE
SL-4 R/B 2.2 22:05:30 10° NW 22:09:24 62° NE 22:10:36 41° E
Cosmos 1486 Rocket 3.9 22:08:49 29° S 22:11:31 80° ESE 22:16:44 10° NNE
CENTAUR R/B 3.0 22:11:56 30° ESE 22:12:11 30° ESE 22:17:37 10° NE
Cosmos 2333 Rocket 4.1 22:09:56 10° NW 22:14:14 22° W 22:18:12 11° SSW
NOSS 5 (C) 4.2 22:11:20 10° NW 22:14:28 79° WSW 22:14:29 79° SW
SL-16 R/B 4.5 22:11:49 10° NNE 22:14:30 13° NE 22:17:10 10° ENE
Cosmos 2237 Rocket 3.0 22:12:16 10° N 22:17:33 39° ENE 22:19:45 28° ESE
Cosmos 2227 Rocket 2.9 22:18:48 32° ESE 22:19:14 32° ESE 22:24:14 10° NE
Cosmos 2322 4.2 22:25:01 10° NNW 22:30:30 52° WSW 22:32:34 34° SSW
Cosmos 1980 4.0 22:26:24 10° NNW 22:31:59 55° ENE 22:33:48 39° ESE
Cosmos 2242 Rocket 3.6 22:31:20 59° SSE 22:32:03 73° E 22:36:37 10° NNE
Cosmos 1354 Rocket 4.1 22:31:07 48° SE 22:32:05 56° ESE 22:37:15 10° NNE
Cosmos 1709 Rocket 4.0 22:33:28 40° SSE 22:35:51 72° E 22:42:10 10° NNE
USA 234 3.6 22:29:27 10° NE 22:35:56 67° NW 22:42:23 10° WSW
Cosmos 2297 Rocket 2.1 22:35:31 33° SSW 22:38:13 88° WNW 22:43:53 10° NNE
Cosmos 1782 Rocket 3.8 22:42:28 10° NNW 22:46:43 56° W 22:47:21 50° SW
Cosmos 371 Rocket 3.9 22:45:02 27° SW 22:47:25 51° WNW 22:52:09 10° N
Terra 4.1 22:46:13 11° SW 22:48:43 16° W 22:51:36 10° NW
Cosmos 2219 Rocket 4.1 22:47:02 10° NW 22:50:55 19° W 22:53:26 15° SW
Cosmos 2219 4.1 22:51:46 32° E 22:51:46 32° E 22:56:28 10° NE
USA 281 3.6 22:50:46 34° ESE 22:53:25 54° ENE 22:59:48 10° NNW
Cosmos 1300 Rocket 3.8 22:49:27 10° NNW 22:53:41 57° W 22:54:07 54° WSW
Meteor 1-24 Rocket 3.6 22:52:47 53° S 22:54:08 77° E 22:59:43 10° NNE
Cosmos 1703 3.4 22:55:32 66° NNW 22:55:32 66° NNW 22:58:48 10° N
Cosmos 773 Rocket 3.9 22:51:06 10° NNW 22:56:17 84° WSW 22:57:07 63° S
ARIANE 5 R/B 2.4 22:57:21 76° E 22:57:30 77° ENE 23:01:52 10° N
PSLV R/B 3.9 22:55:38 10° NNE 22:59:11 67° NE 22:59:11 67° NE
Cosmos 2263 Rocket 3.4 23:01:07 26° E 23:01:07 26° E 23:05:08 10° NE
GP-B 4.0 22:59:40 10° NNW 23:03:47 40° W 23:04:43 35° WSW
Cosmos 1378 Rocket 3.7 23:10:40 62° ENE 23:10:40 62° ENE 23:14:41 10° NNE
Cosmos 1674 Rocket 3.9 23:14:09 54° ENE 23:14:09 54° ENE 23:17:55 10° NNE
COSMOS 2428 4.1 23:13:18 10° NW 23:17:54 26° WSW 23:19:10 24° WSW
NOSS 3-2 (A) 3.0 23:18:38 61° ESE 23:18:38 61° ESE 23:24:19 10° NE
CZ-4C R/B 4.2 23:16:31 10° W 23:20:16 24° NW 23:24:43 10° NNE
Cosmos 1825 3.5 23:23:13 31° NNE 23:23:13 31° NNE 23:25:11 10° NNE
CZ-3 Stage 3 4.3 22:48:37 10° W 23:22:08 43° SW 23:25:34 36° S
NOSS 3-2 (C) 4.3 23:30:23 28° E 23:30:23 28° E 23:34:15 10° NE
Cosmos 2151 Rocket 3.6 23:27:45 10° N 23:31:48 75° N 23:31:48 75° N
H-2A R/B 2.6 23:32:47 72° NW 23:32:47 72° NW 23:36:36 10° NNW
Cosmos 1892 3.8 23:34:58 39° N 23:34:58 39° N 23:37:18 10° N
Cosmos 1538 Rocket 4.4 23:29:04 10° N 23:34:10 51° ENE 23:34:51 47° E
Cosmos 2098 Rocket 4.0 23:30:37 10° NNW 23:36:59 64° W 23:38:07 53° SW
Okean 2 Rocket 3.1 23:32:37 10° N 23:36:50 78° N 23:36:50 78° N
ALOS 2 2.7 23:42:15 71° NNE 23:42:15 71° NNE 23:46:18 10° N
Cosmos 405 Rocket 4.1 23:41:34 10° NNW 23:44:11 32° WNW 23:44:11 32° WNW
Aureole 1 Rocket 3.6 23:48:39 47° NE 23:48:39 47° NE 23:52:13 10° NNE
Cosmos 1937 Rocket 4.4 23:48:31 36° E 23:48:31 36° E 23:52:52 10° NE
